Language Language

English English español español

E Recruit E Recruit

870 Results

ID Position Type
352013 Temp Minneapolis MN Thu Jan 10 09:19:39 GMT 2019
352079 Temp Herndon VA Thu Jan 10 08:57:10 GMT 2019
352129 Temp Livermore CA Wed Jan 09 22:24:48 GMT 2019
352118 Temp Research Triangle Park NC Wed Jan 09 18:32:23 GMT 2019
351791 Temp Corning NY Wed Jan 09 18:01:05 GMT 2019
351867 Temp Big Flats NY Wed Jan 09 17:56:58 GMT 2019
351663 Temp Sunnyvale CA Wed Jan 09 17:56:07 GMT 2019
352076 Temp Mountain View CA Wed Jan 09 17:51:03 GMT 2019
352093 Temp Painted Post NY Wed Jan 09 17:35:31 GMT 2019
351873 Temp Corning NY Wed Jan 09 17:26:26 GMT 2019
352037 Temp Dublin OH Wed Jan 09 17:11:37 GMT 2019
352034 Temp Charlotte NC Wed Jan 09 17:05:06 GMT 2019
352060 Temp Charlotte NC Wed Jan 09 17:03:02 GMT 2019
352097 Temp Charlotte NC Wed Jan 09 16:54:36 GMT 2019
350208 Temp Tallahassee FL Wed Jan 09 16:52:26 GMT 2019
349677 Temp Charlotte NC Wed Jan 09 16:26:44 GMT 2019
352038 Temp Dublin OH Wed Jan 09 16:24:17 GMT 2019
352054 Temp Mountain View CA Wed Jan 09 15:33:31 GMT 2019
340022 Temp to Hire Fountain Valley CA Wed Jan 09 14:54:49 GMT 2019
351894 Temp Littleton CO Wed Jan 09 13:55:30 GMT 2019
351847 Temp Hickory NC Wed Jan 09 12:26:18 GMT 2019
344241 Direct Hire Sunnyvale CA Wed Jan 09 11:54:09 GMT 2019
349025 Temp Glendale AZ Wed Jan 09 11:17:55 GMT 2019
351008 Temp Glendale AZ Wed Jan 09 10:54:42 GMT 2019
351986 Temp Chicago IL Wed Jan 09 10:49:49 GMT 2019
351961 Temp Assonet MA Wed Jan 09 10:29:06 GMT 2019
351876 Temp Austin TX Wed Jan 09 10:04:53 GMT 2019
351952 Direct Hire Clay MI Wed Jan 09 08:59:06 GMT 2019
351604 Temp Kennebunk ME Wed Jan 09 07:48:50 GMT 2019
351590 Temp Round Rock TX Tue Jan 08 19:55:44 GMT 2019
351935 Temp Belle Chasse LA Tue Jan 08 19:30:00 GMT 2019
351885 Temp Houston TX Tue Jan 08 19:22:26 GMT 2019
351934 Temp Borger TX Tue Jan 08 19:12:33 GMT 2019
351933 Temp Westlake LA Tue Jan 08 19:01:40 GMT 2019
351931 Direct Hire Houston TX Tue Jan 08 18:36:26 GMT 2019
351782 Temp Round Rock TX Tue Jan 08 18:03:50 GMT 2019
351760 Temp San Francisco CA Tue Jan 08 17:45:07 GMT 2019
351895 Temp Saint Paul MN Tue Jan 08 17:38:23 GMT 2019
349980 Temp Charlotte NC Tue Jan 08 17:34:05 GMT 2019
351902 Temp Charlotte NC Tue Jan 08 17:34:05 GMT 2019
351696 Temp San Francisco CA Tue Jan 08 16:43:43 GMT 2019
351863 Temp Charlotte NC Tue Jan 08 16:41:25 GMT 2019
351861 Temp Minneapolis MN Tue Jan 08 14:15:21 GMT 2019
351853 Temp Winston-Salem NC Tue Jan 08 13:35:46 GMT 2019
351792 Temp Woburn MA Tue Jan 08 12:50:05 GMT 2019
344766 Temp Charlotte NC Tue Jan 08 12:34:23 GMT 2019
351702 Temp Sterling Heights MI Tue Jan 08 11:30:28 GMT 2019
351815 Temp Corning NY Tue Jan 08 11:29:52 GMT 2019
351750 Temp Winston Salem NC Tue Jan 08 10:52:33 GMT 2019
351634 Temp Charlotte NC Tue Jan 08 10:18:32 GMT 2019
351783 Temp Addison NY Tue Jan 08 10:11:44 GMT 2019
350891 Temp Charlotte NC Tue Jan 08 10:02:45 GMT 2019
351712 Temp Corning NY Tue Jan 08 09:59:07 GMT 2019
351504 Temp Naugatuck CT Tue Jan 08 09:53:04 GMT 2019
351740 Temp Wilmington NC Tue Jan 08 09:46:32 GMT 2019
351650 Temp Harrodsburg KY Tue Jan 08 09:06:53 GMT 2019
351723 Temp Charlotte NC Mon Jan 07 18:06:08 GMT 2019
351546 Temp Corning NY Mon Jan 07 17:41:07 GMT 2019
351722 Temp Shoreview MN Mon Jan 07 17:17:42 GMT 2019
351639 Temp Southborough MA Mon Jan 07 16:53:16 GMT 2019
350586 Temp Chicago IL Mon Jan 07 16:24:44 GMT 2019
351472 Temp Charlotte NC Mon Jan 07 15:25:38 GMT 2019
351706 Temp Sterling Heights MI Mon Jan 07 14:23:42 GMT 2019
351669 Temp Charlotte NC Mon Jan 07 14:20:19 GMT 2019
351610 Temp Oklahoma City OK Mon Jan 07 14:12:59 GMT 2019
351700 Temp Sterling Heights MI Mon Jan 07 14:04:06 GMT 2019
351698 Temp Sterling Heights MI Mon Jan 07 14:02:35 GMT 2019
351667 Temp Mountain View CA Mon Jan 07 13:39:33 GMT 2019
351617 Temp Charlotte NC Mon Jan 07 13:33:04 GMT 2019
349637 Temp Charlotte NC Mon Jan 07 12:41:33 GMT 2019
330934 Temp Minneapolis MI Mon Jan 07 12:39:03 GMT 2019
351216 Temp to Hire Fitchburg MA Mon Jan 07 11:44:09 GMT 2019
351613 Temp Charlotte NC Mon Jan 07 11:21:04 GMT 2019
347574 Temp Woburn MA Mon Jan 07 11:15:53 GMT 2019
343130 Direct Hire Devens MA Mon Jan 07 10:58:27 GMT 2019
351651 Temp Dearborn MI Mon Jan 07 10:44:11 GMT 2019
351637 Temp Killeen TX Mon Jan 07 10:29:37 GMT 2019
351628 Temp Dearborn MI Mon Jan 07 10:08:23 GMT 2019
351251 Temp Charlotte NC Mon Jan 07 10:00:46 GMT 2019
350334 Temp North Brunswick NJ Mon Jan 07 09:15:18 GMT 2019
348101 Direct Hire Adrian MI Mon Jan 07 09:07:02 GMT 2019
348333 Direct Hire Mon Jan 07 09:06:09 GMT 2019
351377 Direct Hire Houston TX Mon Jan 07 09:02:15 GMT 2019
338907 Direct Hire Rochester Hills MI Mon Jan 07 09:01:20 GMT 2019
342335 Direct Hire Rochester Hills MI Mon Jan 07 08:58:03 GMT 2019
350101 Direct Hire Connersville IN Mon Jan 07 08:56:26 GMT 2019
351376 Direct Hire Houston TX Mon Jan 07 08:52:41 GMT 2019
351614 Direct Hire Connersville IN Mon Jan 07 08:50:07 GMT 2019
351611 Direct Hire Connersville IN Mon Jan 07 08:41:22 GMT 2019
351466 Temp Windsor CT Mon Jan 07 08:37:38 GMT 2019
341383 Temp Broomfield CO Sun Jan 06 11:50:41 GMT 2019
340115 Temp Concord CA Sun Jan 06 08:20:22 GMT 2019
346201 Temp Charlotte NC Sun Jan 06 08:16:40 GMT 2019
351587 Temp Round Rock TX Sat Jan 05 16:41:28 GMT 2019
351588 Temp Round Rock TX Sat Jan 05 16:33:33 GMT 2019
351589 Temp Round Rock TX Sat Jan 05 16:18:48 GMT 2019
351591 Temp Round Rock TX Sat Jan 05 16:00:50 GMT 2019
351594 Temp Round Rock TX Sat Jan 05 15:56:42 GMT 2019
351595 Temp Round Rock TX Sat Jan 05 15:49:37 GMT 2019
351596 Temp Round Rock TX Sat Jan 05 15:43:20 GMT 2019
351593 Temp Westlake LA Sat Jan 05 14:48:30 GMT 2019
351592 Temp Metairie LA Sat Jan 05 14:33:52 GMT 2019
351581 Temp to Hire Fremont CA Fri Jan 04 19:52:11 GMT 2019
351444 Temp Fremont CA Fri Jan 04 19:03:17 GMT 2019
351387 Temp Denver CO Fri Jan 04 16:59:58 GMT 2019
351516 Temp Corning NY Fri Jan 04 15:46:00 GMT 2019
351540 Temp Chandler AZ Fri Jan 04 15:33:42 GMT 2019
351535 Temp Phoenix AZ Fri Jan 04 15:31:25 GMT 2019
351495 Temp Phoenix AZ Fri Jan 04 13:55:45 GMT 2019
351474 Temp Phoenix AZ Fri Jan 04 13:47:10 GMT 2019
351230 Temp Mechanicsburg PA Fri Jan 04 13:24:09 GMT 2019
349279 Direct Hire La Porte TX Fri Jan 04 13:07:10 GMT 2019
347557 Temp Round Rock TX Fri Jan 04 12:25:51 GMT 2019
351463 Temp Littleton CO Fri Jan 04 12:14:58 GMT 2019
351437 Temp Austin TX Fri Jan 04 12:10:48 GMT 2019
351089 Temp West Des Moines IA Fri Jan 04 10:00:41 GMT 2019
351350 Temp Charlotte NC Fri Jan 04 09:45:56 GMT 2019
351397 Temp Charlotte NC Fri Jan 04 09:32:52 GMT 2019
351285 Temp Wilmington NC Fri Jan 04 09:32:40 GMT 2019
351357 Temp Wake Forest NC Fri Jan 04 09:32:37 GMT 2019
351133 Temp Nashville TN Fri Jan 04 09:31:22 GMT 2019
351279 Temp Wilmington NC Fri Jan 04 09:30:50 GMT 2019
351446 Temp Fountain Valley CA Fri Jan 04 09:25:04 GMT 2019
351429 Direct Hire Vernon CA Thu Jan 03 19:17:28 GMT 2019
351401 Temp Charlotte NC Thu Jan 03 17:59:23 GMT 2019
351378 Temp Elk Grove IL Thu Jan 03 17:36:55 GMT 2019
351341 Temp Sterling Heights MI Thu Jan 03 17:05:46 GMT 2019
350255 Temp Durham NC Thu Jan 03 16:38:20 GMT 2019
351398 Temp Dearborn MI Thu Jan 03 16:25:37 GMT 2019
351277 Temp Sterling Heights MI Thu Jan 03 16:19:24 GMT 2019
351286 Temp Wilmington NC Thu Jan 03 15:40:42 GMT 2019
351271 Temp Canton NY Thu Jan 03 15:33:56 GMT 2019
351283 Direct Hire Fountain Valley CA Thu Jan 03 15:22:37 GMT 2019
351287 Temp Fountain Valley CA Thu Jan 03 15:13:59 GMT 2019
351302 Temp Saint Paul MN Thu Jan 03 15:09:54 GMT 2019
348562 Temp Austin TX Thu Jan 03 14:50:03 GMT 2019
351298 Temp Hickory NC Thu Jan 03 14:21:03 GMT 2019
351276 Temp Charlotte NC Thu Jan 03 13:43:26 GMT 2019
351330 Temp Des Plaines IL Thu Jan 03 13:33:58 GMT 2019
351278 Temp Wilmington NC Thu Jan 03 12:46:48 GMT 2019
345634 Temp Columbia MD Thu Jan 03 12:40:20 GMT 2019
351319 Temp Charlotte NC Thu Jan 03 12:33:03 GMT 2019
351131 Temp Atlanta GA Thu Jan 03 11:35:59 GMT 2019
350446 Temp Round Rock TX Thu Jan 03 11:13:41 GMT 2019
351247 Temp Muskegon MI Thu Jan 03 11:13:15 GMT 2019
350169 Temp Charlotte NC Thu Jan 03 10:58:21 GMT 2019
351024 Temp Charlotte NC Thu Jan 03 10:40:03 GMT 2019
351268 Temp Durham NC Thu Jan 03 10:39:58 GMT 2019
351263 Temp Redwood City CA Thu Jan 03 10:19:34 GMT 2019
351214 Direct Hire Fitchburg MA Thu Jan 03 09:26:30 GMT 2019
351262 Temp Houston TX Thu Jan 03 09:02:45 GMT 2019
346290 Temp Fairport NY Thu Jan 03 08:42:57 GMT 2019
342765 Temp Sterling Heights MI Thu Jan 03 08:32:46 GMT 2019
351218 Temp New York NY Wed Jan 02 17:26:32 GMT 2019
351110 Temp Englewood CO Wed Jan 02 17:07:37 GMT 2019
351211 Temp Harrodsburg KY Wed Jan 02 15:42:20 GMT 2019
351116 Temp New York NY Wed Jan 02 15:05:40 GMT 2019
351194 Temp Des Moines IA Wed Jan 02 15:03:24 GMT 2019
351179 Temp Charlotte NC Wed Jan 02 13:56:03 GMT 2019
346439 Temp Sterling Heights MI Wed Jan 02 12:50:52 GMT 2019
351134 Temp Hopkinton MA Wed Jan 02 12:04:41 GMT 2019
342788 Temp Sterling Heights MI Wed Jan 02 11:19:39 GMT 2019
351075 Temp Sterling Heights MI Wed Jan 02 10:21:47 GMT 2019
351083 Temp Corning NY Wed Jan 02 10:05:30 GMT 2019
350687 Direct Hire Houston TX Mon Dec 31 15:50:26 GMT 2018
351051 Direct Hire Waltham MA Mon Dec 31 15:37:30 GMT 2018
351092 Temp Round Rock TX Mon Dec 31 14:54:00 GMT 2018
351090 Temp Southborough MA Mon Dec 31 14:47:45 GMT 2018
340057 Temp Washington DC Mon Dec 31 10:20:45 GMT 2018
349686 Temp Danville PA Mon Dec 31 10:15:15 GMT 2018
341338 Temp Houston TX Sat Dec 29 12:35:10 GMT 2018
349465 Temp Charlotte NC Fri Dec 28 17:58:17 GMT 2018
351057 Temp Chandler AZ Fri Dec 28 17:29:07 GMT 2018
351029 Temp Charlotte NC Fri Dec 28 14:47:37 GMT 2018
344987 Temp Sterling Heights MI Fri Dec 28 11:25:20 GMT 2018
350690 Temp Addison NY Fri Dec 28 11:21:36 GMT 2018
350956 Temp Ponca City OK Thu Dec 27 17:41:23 GMT 2018
350989 Temp Ponca City OK Thu Dec 27 17:03:39 GMT 2018
350620 Temp Painted Post NY Thu Dec 27 17:01:49 GMT 2018
350810 Temp North Brunswick NJ Thu Dec 27 16:55:41 GMT 2018
350901 Temp to Hire Orlando FL Thu Dec 27 16:16:51 GMT 2018
349560 Temp Broomfield CO Thu Dec 27 11:49:27 GMT 2018
350653 Temp Sunnyvale CA Thu Dec 27 11:43:12 GMT 2018
350937 Temp Hunt Valley MD Thu Dec 27 10:38:16 GMT 2018
350925 Temp Wayne PA Thu Dec 27 10:08:15 GMT 2018
350911 Direct Hire Plano TX Wed Dec 26 17:55:23 GMT 2018
350909 Direct Hire Plano TX Wed Dec 26 17:49:14 GMT 2018
350856 Temp Denver CO Wed Dec 26 12:05:20 GMT 2018
350863 Temp Broomfield CO Wed Dec 26 11:38:08 GMT 2018
350827 Temp Lufkin TX Wed Dec 26 08:49:59 GMT 2018
350842 Temp San Jose CA Mon Dec 24 16:46:09 GMT 2018
350841 Temp San Jose CA Mon Dec 24 16:36:44 GMT 2018
350837 Temp Charlotte NC Mon Dec 24 15:13:10 GMT 2018
349787 Temp Round Rock TX Mon Dec 24 13:46:02 GMT 2018
350794 Temp Charlotte NC Mon Dec 24 11:58:45 GMT 2018
350729 Temp Chesterfield MO Mon Dec 24 09:50:36 GMT 2018
350718 Temp Kearneysville WV Sun Dec 23 17:54:11 GMT 2018
350623 Temp Alpharetta GA Sun Dec 23 17:36:48 GMT 2018
350777 Temp Cordova TN Fri Dec 21 17:59:16 GMT 2018
350752 Temp Englewood CO Fri Dec 21 15:23:16 GMT 2018